Hourly Data Report for May 08, 2020

TORONTO CITY
ONTARIO
Current Station Operator: ECCC - MSC

43°40'00.000" N
79°24'00.000" W
112.50 m
6158355
71508
XTO

Download Data

Hourly Data (May 2020)
Hourly Data Report for May 8, 2020
TIME
LST
Temp Definition
°C
Dew Point Definition
°C
Rel Hum Definition
%
Precip. Amount Definition
mm

Wind Dir Definition
10's deg

Wind Spd Definition
km/h
Visibility Definition
km
Stn Press Definition
kPa
Hmdx Definition


Wind Chill Definition


Weather Definition


00:00 4.4 -6.6 45 0.0       99.80     LegendNANA
01:00 3.2 -7.8 44 0.0       99.76     LegendNANA
02:00 2.1 -6.1 54 0.0       99.73     LegendNANA
03:00 1.5 -5.4 60 0.0       99.69     LegendNANA
04:00 1.1 -4.8 64 0.0       99.70     LegendNANA
05:00 1.3 -4.9 63 0.0       99.68     LegendNANA
06:00 1.6 -5.4 60 0.0       99.71     LegendNANA
07:00 2.0 -7.3 50 0.0       99.75     LegendNANA
08:00 3.1 -10.3 37 0.0       99.78     LegendNANA
09:00 3.9 -12.2 30 0.0       99.75     LegendNANA
10:00 4.0 -13.1 27 0.0       99.69     LegendNANA
11:00 4.7 -11.8 29 0.0       99.67     LegendNANA
12:00 5.1 -10.8 31 0.0       99.65     LegendNANA
13:00 4.5 -10.2 33 0.2       99.64     LegendNANA
14:00 4.3 -10.1 34 0.0       99.65     LegendNANA
15:00 4.4 -7.8 40 0.2       99.64     LegendNANA
16:00 3.2 -9.9 38 0.0       99.68     LegendNANA
17:00 3.8 -12.3 30 0.2       99.69     LegendNANA
18:00 2.7 -13.6 29 0.0       99.73     LegendNANA
19:00 1.6 -13.5 32 0.0       99.79     LegendNANA
20:00 0.7 -12.0 38 0.0       99.87     LegendNANA
21:00 0.2 -11.5 41 0.0       99.93     LegendNANA
22:00 -0.5 -10.3 47 0.0       99.97     LegendNANA
23:00 -0.8 -9.3 53 0.0       99.98     LegendNANA

Notes on Data Quality.

Legend

  • E = Estimated
  • M = Missing
  • NA = Not Available*
  • [empty] = Indicates an unobserved value
Date modified: